C/2013 X1 ( PanSTARRS )

Japanese version
Home page
Updated on July 17, 2016

---------------------------------------------------------------------

* Profile

Discovery Date December 4, 2013
Magnitude 20.2 mag
Discoverer Pan-STARRS 1 telescope (Haleakala)

* Pictures

* Orbital Elements

Epoch 2016 July 31.0 TT = JDT 2457600.5
T 2016 Apr. 20.71946 TT                                 MPCW
q   1.3142780            (2000.0)            P               Q
z  -0.0007566      Peri.  164.45219     +0.82532172     -0.52093325
                   Node   130.95671     -0.54394747     -0.62991606
e   1.0009944      Incl.  163.23139     -0.15154272     -0.57605061
From 2709 observations 2013 Nov. 29-2016 May 17, mean residual 0".7.
     Nongravitational parameters A1 = +2.36, A2 = +0.1603.

* Finding Charts

* Magnitudes Graph

        m1 = 5.5 + 5 log d + 10.0 log r  [    ,-290]  (             - 2015 July  5)
        m1 = 4.0 + 5 log d + 12.5 log r  [-290, -66]  (2015 July  5 - 2016 Feb. 14)
        m1 = 5.6 + 5 log d +  5.0 log r  [ -66,   0]  (2016 Feb. 14 - 2016 Apr. 20)
        m1 = 5.0 + 5 log d + 10.0 log r  [   0,    ]  (2016 Apr. 20 -             )

---------------------------------------------------------------------

The orbital elements are published on M.P.E.C. 2016-K18.
The charts are made with StellaNavigator Ver.8 (AstroArts).
The magnitudes graphs are made with Comet for Windows.

---------------------------------------------------------------------

Copyright(C) Seiichi Yoshida (comet@aerith.net). All rights reserved.